Regional Weather Roundup
Issued by NWS

Home | Current Version | Previous Version | Graphics & Text | Print | Product List | Glossary On
Versions: 1 2 3 4 5 6 7 8 9 10 11 12 13 14 15 16 17 18 19 20 21 22 23 24 25 26 27 28 29 30 31 32 33 34 35 36 37 38 39 40 41 42 43 44 45 46 47 48 49 50
000
ASUS44 KMEG 242310
RWRTN
TENNESSEE HOURLY STATE WEATHER ROUNDUP
NATIONAL WEATHER SERVICE MEMPHIS TN
600 PM CDT FRI MAR 24 2017

TNZ002-004-019-021-049-052-054-088>092-250000-
WEST TENNESSEE

CITY           SKY/WX    TMP DP  RH WIND       PRES   REMARKS
MEMPHIS INTL   CLOUDY    75  59  57 SE20G28   29.98F
NWS MEMPHIS      N/A     74 N/A N/A MISG        N/A
JACKSON        CLOUDY    73  57  57 S10G21    30.06F
DYERSBURG      CLOUDY    72  58  61 SE12G17   30.01F
SOMERVILLE     SUNNY     73  57  56 SE10G23   30.02F
BOLIVAR        SUNNY     72  57  60 SE16      30.06F
PARIS          SUNNY     70  54  56 S14       30.08F
HUNTINGDON     SUNNY     72  55  56 S14G22    30.07F
SAVANNAH       SUNNY     72  57  60 S9G15     30.11F
$$

TNZ008-025-027-028-033-062-065-066-250000-
NORTH MIDDLE TENNESSEE

CITY           SKY/WX    TMP DP  RH WIND       PRES   REMARKS
NASHVILLE      CLOUDY    73  53  49 S15       30.17F
PORTLAND       MOSUNNY   72  54  53 S14G21    30.15F
CLARKSVILLE    CLOUDY    73  52  47 S13       30.12F
SMYRNA         CLOUDY    72  54  53 S8        30.18F
COOKEVILLE     PTSUNNY   70  52  52 S12G17    30.21F
GALLATIN       PTSUNNY   73  54  49 S13G20    30.19F
CROSSVILLE     MOSUNNY   63  48  58 S7G16     30.27F
$$

TNZ061-075-076-078-094-096-097-250000-
SOUTH MIDDLE TENNESSEE

CITY           SKY/WX    TMP DP  RH WIND       PRES   REMARKS
FAYETTEVILLE   CLOUDY    70  54  56 S12       30.21F
TULLAHOMA      CLOUDY    68  48  49 S12       30.23F
WINCHESTER     CLOUDY    70  52  52 SE14      30.24S
MCMINNVILLE    PTSUNNY   72  54  53 S7        30.23S
COLUMBIA       CLOUDY    72  54  53 S8        30.16F
SHELBYVILLE    CLOUDY    72  55  56 S8        30.21F
$$

TNZ017-018-042-046-047-250000-
NORTHEAST TENNESSEE

CITY           SKY/WX    TMP DP  RH WIND       PRES   REMARKS
TRI CITIES     CLOUDY    70  47  43 W10       30.24F
ELIZABETHTON   CLOUDY    72  48  43 W5        30.23F
$$

TNZ012-013-036-069-073-074-250000-
CENTRAL EAST TENNESSEE

CITY           SKY/WX    TMP DP  RH WIND       PRES   REMARKS
KNOXVILLE      CLOUDY    68  48  48 S10       30.26S
OAK RIDGE      MOCLDY    69  46  43 SW7       30.27F
DOWNTOWN KNOXV CLOUDY    70  50  49 W8        30.26F
GATLINBURG     CLOUDY    70  46  43 SW8       30.26R
MORRISTOWN     CLOUDY    70  48  46 W6        30.25S
JACKSBORO      PTCLDY    68  48  49 S9G15     30.28S
$$

TNZ083-085-099-250000-
SOUTHEAST TENNESSEE

CITY           SKY/WX    TMP DP  RH WIND       PRES   REMARKS
CHATTANOOGA    PTSUNNY   71  48  43 S7        30.26F
$$

SKY/WX REPORTED AS FAIR MEANS FEW OR NO CLOUDS BELOW
12 THOUSAND FEET.





USA.gov is the U.S. government's official web portal to all federal, state and local government web resources and services.